Zurück zum Katalog

ONEWEB-0410

AktivKommunikationPO
NORAD 51622·PAYLOAD·🇬🇧 United Kingdom

Gestartet Feb 10, 2022 von Guiana Space Centre

Loading…

Nächste Überflüge (nächste 24 Stunden)

TLE

AktuellSource: CelesTrak SupGP

Epoche: Sep 14, 2026, 20:17 UTC

1 51622C 22012A   26257.84566389 -.00002807  00000+0 -72392-2 0  2574
2 51622  87.9200 348.0585 0002685 129.9824 342.5782 13.17653986    14

Verfolge ONEWEB-0410 in Echtzeit mit AllMySat

Download on the App Store